| time (UTC) | temp C | wind direction | speed KPH | gust KPH | rain 1hr cm | rain 24hr cm | rain mn cm | humidity % | barometer mb |
| 20260503035704 | 12 | 84 | 3.2 | 11.3 | 0.00 | 0.00 | 0.00 | 76 | 1018.5 |
| 20260503034704 | 11 | 131 | 1.6 | 4.8 | 0.00 | 0.00 | 0.00 | 79 | 1018.7 |
| 20260503033708 | 11 | 131 | 1.6 | 4.8 | 0.00 | 0.00 | 0.00 | 79 | 1018.7 |
| 20260503032709 | 11 | 87 | 3.2 | 4.8 | 0.00 | 0.00 | 0.00 | 77 | 1018.7 |
| 20260503030703 | 13 | 42 | 4.8 | 12.9 | 0.00 | 0.00 | 0.00 | 72 | 1018.9 |
| 20260503024704 | 13 | 84 | 6.4 | 16.1 | 0.00 | 0.00 | 0.00 | 71 | 1018.9 |
| 20260503021703 | 13 | 61 | 3.2 | 9.7 | 0.00 | 0.00 | 0.00 | 72 | 1019.0 |
| 20260503020704 | 13 | 66 | 4.8 | 11.3 | 0.00 | 0.00 | 0.00 | 71 | 1019.0 |
| 20260503015703 | 13 | 82 | 6.4 | 12.9 | 0.00 | 0.00 | 0.00 | 72 | 1019.1 |
| 20260503014704 | 13 | 67 | 4.8 | 11.3 | 0.00 | 0.00 | 0.00 | 72 | 1019.1 |
| 20260503013707 | 13 | 66 | 3.2 | 9.7 | 0.00 | 0.00 | 0.00 | 72 | 1019.2 |
| 20260503012707 | 13 | 61 | 4.8 | 11.3 | 0.00 | 0.00 | 0.00 | 72 | 1019.2 |
| 20260503005704 | 13 | 86 | 3.2 | 4.8 | 0.00 | 0.00 | 0.00 | 72 | 1019.5 |
| 20260503003705 | 13 | 53 | 6.4 | 12.9 | 0.00 | 0.00 | 0.00 | 71 | 1019.7 |
| 20260503002703 | 13 | 82 | 4.8 | 11.3 | 0.00 | 0.00 | 0.00 | 73 | 1019.7 |
| 20260503001704 | 12 | 65 | 3.2 | 8.0 | 0.00 | 0.00 | 0.00 | 76 | 1019.9 |
| 20260503000704 | 12 | 59 | 3.2 | 8.0 | 0.00 | 0.00 | 0.00 | 75 | 1019.9 |
| 20260502235706 | 12 | 100 | 3.2 | 6.4 | 0.00 | 0.00 | 0.00 | 75 | 1020.1 |
| 20260502233703 | 13 | 107 | 3.2 | 6.4 | 0.00 | 0.00 | 0.00 | 75 | 1020.3 |
| 20260502232704 | 13 | 123 | 3.2 | 4.8 | 0.00 | 0.00 | 0.00 | 74 | 1020.3 |
| 20260502231703 | 13 | 136 | 1.6 | 4.8 | 0.00 | 0.00 | 0.00 | 75 | 1020.3 |
| 20260502230701 | 13 | 138 | 1.6 | 3.2 | 0.00 | 0.00 | 0.00 | 74 | 1020.3 |
| 20260502225706 | 13 | 138 | 1.6 | 4.8 | 0.00 | 0.00 | 0.00 | 73 | 1020.3 |
| 20260502224700 | 13 | 108 | 3.2 | 6.4 | 0.00 | 0.00 | 0.00 | 72 | 1020.3 |
| 20260502223700 | 14 | 69 | 3.2 | 6.4 | 0.00 | 0.00 | 0.00 | 69 | 1020.2 |
| 20260502222659 | 14 | 51 | 3.2 | 11.3 | 0.00 | 0.00 | 0.00 | 69 | 1020.2 |
| 20260502221657 | 13 | 133 | 1.6 | 3.2 | 0.00 | 0.00 | 0.00 | 73 | 1020.3 |
| 20260502220657 | 13 | 132 | 1.6 | 6.4 | 0.00 | 0.00 | 0.00 | 71 | 1020.2 |
| 20260502215658 | 14 | 132 | 3.2 | 6.4 | 0.00 | 0.00 | 0.00 | 71 | 1020.2 |
| 20260502214656 | 14 | 138 | 3.2 | 6.4 | 0.00 | 0.00 | 0.00 | 70 | 1020.2 |
| 20260502213655 | 15 | 103 | 3.2 | 6.4 | 0.00 | 0.00 | 0.00 | 69 | 1020.3 |
| 20260502212656 | 14 | 98 | 1.6 | 6.4 | 0.00 | 0.00 | 0.00 | 70 | 1020.3 |
| 20260502211652 | 15 | 75 | 1.6 | 4.8 | 0.00 | 0.00 | 0.00 | 68 | 1020.2 |
| 20260502210654 | 15 | 75 | 1.6 | 4.8 | 0.00 | 0.00 | 0.00 | 68 | 1020.2 |
| 20260502205654 | 15 | 49 | 3.2 | 8.0 | 0.00 | 0.00 | 0.00 | 65 | 1020.2 |
| 20260502204654 | 15 | 111 | 3.2 | 11.3 | 0.00 | 0.00 | 0.00 | 66 | 1020.1 |
| 20260502202652 | 16 | 71 | 3.2 | 6.4 | 0.00 | 0.00 | 0.00 | 65 | 1020.1 |
| 20260502200652 | 16 | 98 | 3.2 | 4.8 | 0.00 | 0.00 | 0.00 | 64 | 1020.2 |
| 20260502195652 | 16 | 138 | 4.8 | 6.4 | 0.00 | 0.00 | 0.00 | 63 | 1020.1 |
| 20260502194650 | 16 | 50 | 1.6 | 6.4 | 0.00 | 0.00 | 0.00 | 62 | 1020.1 |
| 20260502193652 | 17 | 71 | 3.2 | 6.4 | 0.00 | 0.00 | 0.00 | 62 | 1020.0 |
| 20260502192647 | 17 | 78 | 3.2 | 6.4 | 0.00 | 0.00 | 0.00 | 61 | 1019.9 |
| 20260502191646 | 17 | 94 | 3.2 | 6.4 | 0.00 | 0.00 | 0.00 | 61 | 1019.8 |
| 20260502190644 | 17 | 107 | 1.6 | 4.8 | 0.00 | 0.00 | 0.00 | 62 | 1019.7 |
| 20260502185648 | 16 | 61 | 1.6 | 4.8 | 0.00 | 0.00 | 0.00 | 62 | 1019.6 |
| 20260502183643 | 17 | 19 | 1.6 | 4.8 | 0.00 | 0.00 | 0.00 | 59 | 1019.3 |
| 20260502181648 | 18 | 250 | 1.6 | 4.8 | 0.00 | 0.00 | 0.00 | 55 | 1019.0 |
| 20260502180644 | 19 | 248 | 1.6 | 3.2 | 0.00 | 0.00 | 0.00 | 52 | 1019.0 |
| 20260502161640 | 22 | 252 | 14.5 | 25.7 | 0.00 | 0.00 | 0.00 | 43 | 1018.7 |
| 20260502160639 | 23 | 171 | 12.9 | 24.1 | 0.00 | 0.00 | 0.00 | 45 | 1018.7 |
| 20260502151633 | 23 | 249 | 16.1 | 30.6 | 0.00 | 0.00 | 0.00 | 43 | 1019.1 |
| 20260502130632 | 23 | 290 | 14.5 | 27.4 | 0.00 | 0.00 | 0.00 | 47 | 1020.5 |
| 20260502123631 | 23 | 292 | 11.3 | 24.1 | 0.00 | 0.00 | 0.00 | 47 | 1020.9 |
| 20260502122632 | 22 | 267 | 12.9 | 30.6 | 0.00 | 0.00 | 0.00 | 45 | 1021.0 |
| 20260502121632 | 22 | 213 | 12.9 | 25.7 | 0.00 | 0.00 | 0.00 | 47 | 1021.2 |
| 20260502120632 | 22 | 279 | 14.5 | 29.0 | 0.00 | 0.00 | 0.00 | 45 | 1021.3 |
| 20260502113631 | 22 | 283 | 12.9 | 22.5 | 0.00 | 0.00 | 0.00 | 48 | 1021.7 |
| 20260502111639 | 21 | 252 | 14.5 | 27.4 | 0.00 | 0.00 | 0.00 | 49 | 1022.2 |
| 20260502110629 | 21 | 239 | 12.9 | 24.1 | 0.00 | 0.00 | 0.00 | 48 | 1022.5 |
| 20260502105631 | 21 | 189 | 12.9 | 22.5 | 0.00 | 0.00 | 0.00 | 48 | 1022.7 |
| 20260502104628 | 21 | 286 | 11.3 | 22.5 | 0.00 | 0.00 | 0.00 | 48 | 1022.9 |
| 20260502102628 | 20 | 196 | 9.7 | 20.9 | 0.00 | 0.00 | 0.00 | 51 | 1023.1 |
| 20260502101626 | 21 | 250 | 9.7 | 17.7 | 0.00 | 0.00 | 0.00 | 51 | 1023.3 |
| 20260502100627 | 20 | 294 | 11.3 | 20.9 | 0.00 | 0.00 | 0.00 | 50 | 1023.4 |
| 20260502090623 | 18 | 229 | 3.2 | 9.7 | 0.00 | 0.00 | 0.00 | 56 | 1024.3 |
| 20260502070617 | 13 | 51 | 1.6 | 6.4 | 0.00 | 0.00 | 0.00 | 71 | 1025.5 |
| 20260502065615 | 12 | 55 | 4.8 | 11.3 | 0.00 | 0.00 | 0.00 | 72 | 1025.6 |
| 20260502064612 | 12 | 31 | 6.4 | 11.3 | 0.00 | 0.00 | 0.00 | 72 | 1025.6 |
| 20260502063613 | 12 | 94 | 4.8 | 14.5 | 0.00 | 0.00 | 0.00 | 73 | 1025.8 |
| 20260502062613 | 11 | 99 | 4.8 | 9.7 | 0.00 | 0.00 | 0.00 | 74 | 1025.8 |
| 20260502061614 | 11 | 106 | 4.8 | 11.3 | 0.00 | 0.00 | 0.00 | 76 | 1025.9 |
| 20260502055611 | 11 | 72 | 6.4 | 16.1 | 0.00 | 0.00 | 0.00 | 77 | 1026.1 |
| 20260502053610 | 10 | 101 | 1.6 | 6.4 | 0.00 | 0.00 | 0.00 | 79 | 1026.2 |
| 20260502052610 | 10 | 76 | 1.6 | 4.8 | 0.00 | 0.00 | 0.00 | 80 | 1026.1 |
| 20260502051608 | 9 | 60 | 1.6 | 9.7 | 0.00 | 0.00 | 0.00 | 82 | 1026.2 |
| 20260502050622 | 8 | 79 | 1.6 | 9.7 | 0.00 | 0.00 | 0.00 | 84 | 1026.1 |
| 20260502045609 | 8 | 167 | 1.6 | 6.4 | 0.00 | 0.00 | 0.00 | 83 | 1026.1 |
| 20260502044608 | 9 | 355 | 3.2 | 9.7 | 0.00 | 0.00 | 0.00 | 83 | 1026.2 |
| 20260502043608 | 8 | 277 | 1.6 | 6.4 | 0.00 | 0.00 | 0.00 | 82 | 1026.1 |
| 20260502042608 | 9 | 150 | 3.2 | 6.4 | 0.00 | 0.00 | 0.00 | 80 | 1026.0 |
| 20260502041621 | 10 | 86 | 3.2 | 6.4 | 0.00 | 0.00 | 0.00 | 80 | 1025.9 |
| 20260502040612 | 10 | 67 | 4.8 | 11.3 | 0.00 | 0.00 | 0.00 | 80 | 1025.9 |